Wind_Speed
8 7 6 5 4 5 6 6 5 4 3 3 3 3 3 2 2 2 2 2 2 2 2 1 1 2 3 5 5 6 6 5 3 3 3 3 4 5 6 6 6 7 6 5 6 7 6 6 6 5 5 5 5 5 5 5 5 5 5 5 5 5 4 3 3 2 1 1 1 2 2 3 4 4 5 6 7 7 8 8 9 10 10 10 11
8 7 6 5 4 4 5 6 5 5 3 3 3 3 3 3 2 2 1 2 2 2 2 2 2 2 4 5 5 5 7 7 5 4 4 3 4 5 5 6 6 6 6 6 5 6 6 6 6 5 5 5 5 5 5 5 5 5 5 5 4 4 3 3 2 1 0 1 1 2 3 3 4 5 6 6 7 8 8 9 10 10 10 11 12
9 8 6 5 4 4 5 5 5 4 4 3 3 3 4 3 3 2 1 1 2 2 2 2 2 2 4 4 4 3 5 7 7 5 4 3 4 6 6 6 6 6 6 5 5 6 6 6 5 6 5 4 4 4 4 4 4 4 4 4 4 3 2 1 1 0 1 2 2 3 4 4 5 5 6 7 7 8 9 10 10 11 12 12 12
10 9 7 6 5 4 5 5 4 3 3 3 3 3 4 3 3 2 2 1 2 2 3 3 3 2 4 4 4 4 3 5 6 5 4 3 4 6 7 6 6 6 6 5 5 5 5 5 5 5 5 4 4 3 3 3 3 3 3 3 2 2 1 1 1 1 2 2 3 4 4 4 5 5 6 7 8 9 10 10 11 12 12 12 12
11 10 8 6 5 5 5 5 4 3 3 3 3 3 3 3 3 2 2 1 2 2 2 3 3 3 4 4 4 3 2 4 5 5 3 3 4 5 6 7 6 6 6 6 6 5 5 4 4 5 5 4 4 4 3 3 2 2 2 2 2 2 2 2 2 2 3 3 4 4 4 4 5 6 7 8 9 10 11 12 12 13 12 12 13
12 11 9 7 6 6 5 5 4 4 3 3 3 3 2 2 2 2 2 1 1 1 2 2 2 2 3 4 4 2 2 4 5 4 3 3 3 4 5 6 7 7 6 6 6 6 6 5 4 5 5 5 5 4 4 4 3 3 3 3 3 3 3 3 3 3 4 4 4 5 5 6 6 7 8 9 9 10 11 12 12 12 12 12 12
12 12 10 9 7 7 6 5 5 4 4 4 4 3 2 2 2 1 2 1 0 0 1 2 2 1 2 2 3 2 2 4 4 3 3 3 3 4 4 5 7 8 7 6 6 6 6 5 5 4 4 5 5 5 5 5 5 5 4 3 4 3 4 4 4 5 4 4 5 6 7 7 8 8 9 9 10 11 11 12 12 12 12 12 12
13 13 11 10 8 8 7 6 6 5 5 4 4 3 2 2 2 1 1 0 1 1 1 3 3 1 1 2 2 1 3 4 3 3 2 3 3 3 4 4 5 7 7 8 8 7 7 6 6 5 5 5 5 5 6 6 6 6 5 5 5 5 5 5 5 6 6 6 7 7 8 9 9 8 9 10 10 11 11 11 11 11 11 11 11
13 13 12 10 9 8 7 7 7 6 6 5 4 4 4 3 2 1 0 1 1 1 1 3 3 2 3 3 2 3 4 3 2 2 2 3 3 3 3 3 4 5 7 8 8 8 8 7 7 6 6 6 6 5 6 6 6 6 6 6 6 6 7 7 7 8 7 7 8 8 8 8 9 9 9 10 10 10 10 11 11 10 10 10 11
13 13 12 11 10 9 8 8 8 7 6 5 4 5 5 4 3 2 1 1 1 1 1 4 4 5 4 3 3 4 4 2 1 2 2 2 2 3 3 3 4 5 6 7 8 9 9 8 7 7 7 7 6 6 6 6 6 6 6 6 6 7 8 8 8 8 7 7 8 8 8 8 8 8 9 9 10 10 9 9 9 8 9 9 9
14 13 12 11 11 10 9 9 8 7 7 6 5 5 5 4 4 3 1 1 1 1 2 5 5 5 3 2 4 4 3 2 2 2 2 2 2 3 4 4 4 4 4 5 7 8 9 9 8 8 8 7 7 7 7 6 7 7 7 6 6 6 7 7 7 7 7 6 6 6 7 7 8 8 8 9 9 8 7 7 6 6 7 8 8
15 13 13 12 12 11 10 10 9 8 8 7 6 5 5 4 5 4 3 3 1 0 3 5 4 2 1 3 3 2 3 3 2 2 2 2 3 3 4 4 4 4 3 4 5 7 7 8 8 8 8 8 7 7 7 7 7 8 8 7 6 6 7 7 7 6 6 6 6 6 7 7 7 7 7 7 7 5 4 4 5 6 8 9 9
17 15 14 13 13 12 11 11 10 9 9 7 6 5 5 5 5 5 4 4 2 1 4 5 4 2 2 3 2 2 3 3 3 3 3 3 3 4 5 5 4 4 3 4 4 5 6 7 7 8 8 8 8 8 8 8 8 8 7 7 7 6 6 7 6 6 6 6 5 6 6 7 7 7 6 4 3 2 3 4 6 7 8 9 9
18 16 15 14 14 14 12 11 10 10 9 8 7 6 6 6 6 7 6 5 2 2 6 7 4 3 4 3 1 1 3 4 4 4 4 4 5 5 5 5 5 4 4 5 5 5 6 6 7 7 7 8 8 8 8 8 8 7 7 7 7 6 6 7 6 5 5 5 5 6 7 7 6 5 3 1 2 3 4 5 6 7 7 8 8
19 18 17 16 15 15 14 13 11 11 10 9 8 7 7 7 8 8 6 6 3 3 7 7 5 6 4 2 1 2 2 5 7 6 6 6 7 6 6 6 5 5 5 6 5 5 5 6 6 6 6 7 7 8 8 8 7 7 7 7 7 7 6 6 6 5 5 5 6 7 7 6 4 2 2 2 3 3 4 5 5 6 6 7 7
19 18 18 17 17 16 15 14 13 11 10 10 10 9 8 8 9 9 7 7 5 5 8 7 6 8 5 2 1 2 1 4 6 8 8 8 8 8 8 7 7 7 6 6 6 6 6 6 6 6 6 6 6 7 7 7 7 7 7 6 7 7 7 7 6 5 5 6 6 6 5 3 2 1 2 2 2 3 4 4 4 5 5 6 7
20 19 19 18 18 17 16 15 14 13 12 11 11 9 8 8 9 10 8 8 7 5 8 8 8 10 6 3 1 1 1 2 3 6 9 10 10 10 10 9 8 8 8 7 7 7 7 6 6 6 6 6 6 6 6 7 6 6 7 6 7 8 7 7 6 5 5 5 5 4 2 1 1 0 1 2 2 3 3 3 4 4 5 6 7
21 20 19 18 18 18 18 17 16 15 13 12 11 10 9 8 9 10 9 9 8 6 8 8 8 11 9 5 3 2 3 2 0 2 5 8 10 11 11 11 10 10 9 8 8 8 8 8 7 6 6 6 6 6 6 7 7 6 7 6 7 7 6 5 6 6 5 4 4 3 2 1 1 1 0 1 2 2 2 3 4 4 5 6 7
22 21 20 19 18 18 18 18 17 16 15 13 13 11 10 9 8 9 9 9 10 8 8 9 8 10 11 8 4 3 4 5 3 1 2 4 9 12 13 13 13 13 12 10 9 9 9 9 8 7 7 6 6 6 6 6 7 7 7 6 7 7 5 5 6 6 6 5 3 3 2 2 1 1 1 1 1 2 2 3 4 5 7 8 9
22 22 21 20 19 19 19 19 19 18 17 15 14 12 10 10 9 9 10 10 11 9 8 9 9 9 11 10 6 4 5 8 8 5 2 1 4 8 12 14 15 16 15 13 12 10 9 9 9 9 8 7 6 6 6 6 7 7 7 6 6 6 5 5 5 6 5 5 4 3 3 2 2 2 1 0 1 2 3 5 6 7 9 9 11
23 23 23 23 21 20 19 19 19 19 18 17 15 13 12 11 11 10 11 11 11 11 10 10 10 10 10 11 9 5 5 7 8 8 4 2 2 3 8 12 13 16 17 16 14 12 11 9 9 9 8 8 8 8 7 7 6 6 5 5 5 5 5 4 5 5 5 5 5 5 4 4 3 2 2 1 2 3 4 5 7 8 10 11 12
25 24 24 24 23 21 20 19 19 19 19 19 17 15 13 12 12 11 11 12 12 13 12 11 10 10 10 11 11 8 6 5 7 9 6 3 3 3 7 9 9 13 15 16 16 15 13 11 10 10 9 9 9 9 9 8 7 6 5 5 5 5 5 5 6 6 7 7 7 7 6 6 5 4 4 3 3 4 5 6 8 9 11 11 12
26 25 25 25 25 24 22 20 19 19 20 20 19 17 15 14 12 12 12 12 13 14 14 13 12 11 10 11 12 12 10 7 7 10 9 6 3 3 8 10 11 14 14 14 15 15 15 15 14 13 11 10 9 9 10 9 9 8 7 7 6 6 6 7 8 8 8 8 8 8 8 7 7 6 5 5 5 5 6 7 8 10 11 12 12
27 27 26 26 26 26 25 22 20 20 20 20 20 19 17 15 14 13 13 13 14 14 15 15 14 13 12 12 13 14 15 13 11 11 12 12 9 6 8 8 8 13 16 16 16 16 17 17 17 16 13 12 11 10 10 10 10 10 9 9 8 8 8 9 9 9 9 9 9 9 9 9 8 7 7 7 7 7 7 8 9 10 11 12 13
28 29 28 27 27 27 26 25 22 20 19 19 20 20 18 17 16 15 14 14 14 15 16 17 17 16 15 14 14 15 17 16 14 13 13 13 12 9 8 7 6 10 13 14 15 17 18 18 18 18 17 15 14 13 12 11 11 10 11 11 10 10 11 11 11 10 10 10 10 10 10 10 9 9 8 8 9 9 9 9 10 10 11 12 13
30 29 28 26 26 26 26 25 23 21 20 19 19 20 19 18 17 16 16 15 15 15 16 17 18 18 17 16 16 17 17 17 16 15 14 13 12 11 8 6 6 9 9 10 12 14 16 17 17 17 18 18 17 16 15 14 12 11 12 12 12 12 12 13 13 12 12 12 11 11 11 11 11 10 10 10 11 11 11 11 11 11 12 12 13
30 29 27 26 25 26 26 26 24 22 20 20 19 20 20 19 18 17 17 16 15 16 16 17 19 20 19 19 18 18 17 17 16 16 16 14 13 14 10 5 4 6 7 8 11 15 18 19 18 17 18 18 18 18 17 17 15 14 14 15 14 13 13 13 14 14 14 14 13 13 13 13 13 12 12 13 13 13 13 13 13 13 13 13 13
31 29 28 27 26 25 26 26 25 24 22 21 20 20 20 20 19 19 18 17 16 16 17 17 19 19 20 20 20 20 19 17 16 15 15 15 14 14 12 9 6 3 3 4 7 12 17 17 16 16 16 17 18 18 18 19 19 17 17 17 17 16 15 14 15 15 16 16 15 15 15 16 16 16 15 15 15 15 15 15 15 14 14 14 13
31 31 29 28 28 26 26 26 26 25 24 22 21 21 21 21 21 20 19 18 17 17 17 18 19 19 20 21 21 21 20 18 18 16 15 16 15 15 14 13 10 5 2 2 4 7 11 13 13 13 14 14 15 17 18 19 19 19 20 20 20 19 18 17 17 17 17 17 17 17 17 17 17 18 18 18 18 18 17 17 17 16 16 15 14
32 31 30 30 29 28 27 27 27 27 26 24 23 22 22 22 22 21 20 19 19 19 18 18 19 19 21 21 22 22 21 19 19 19 18 17 16 17 16 15 15 11 7 4 5 10 12 13 13 13 14 15 15 16 18 18 18 20 21 22 23 22 21 21 20 20 19 20 20 20 20 19 19 20 20 20 20 20 19 19 19 18 17 17 15
32 32 31 31 30 30 29 28 28 28 27 26 25 24 24 24 23 22 21 20 20 20 20 19 19 19 20 22 22 22 21 20 20 20 20 18 17 18 18 18 18 17 14 9 5 11 15 14 16 17 17 18 17 17 19 19 19 20 21 23 24 24 24 24 24 23 23 22 22 22 22 22 22 22 22 22 22 22 21 21 20 20 19 18 17
33 32 32 32 32 32 31 30 29 29 29 28 27 26 25 25 24 23 22 21 22 22 21 20 20 20 21 22 23 22 22 21 21 21 20 20 19 19 19 20 20 19 18 13 9 15 23 22 23 25 22 21 20 20 20 20 20 21 22 23 23 24 25 27 27 26 26 25 25 25 24 24 24 25 25 24 24 24 23 23 22 22 21 20 19
32 32 32 32 33 32 32 31 30 30 30 29 28 28 27 26 25 24 23 23 23 23 22 22 22 22 23 24 24 23 22 23 23 22 21 21 21 22 21 21 21 20 19 17 15 18 27 28 27 27 25 22 22 22 22 22 22 22 23 23 24 25 26 27 27 28 28 28 27 27 26 26 26 26 26 26 26 25 25 24 24 23 22 21 20
32 33 33 33 33 32 32 31 31 31 31 30 29 29 28 28 26 26 25 25 25 24 24 24 25 25 25 26 26 25 24 24 24 24 23 23 22 23 24 23 23 23 21 21 19 18 24 29 28 28 28 25 25 25 25 24 24 24 24 25 25 25 26 27 28 28 28 29 29 29 28 28 28 28 28 28 27 26 25 25 24 23 23 22 22
32 33 34 34 33 33 32 32 31 31 31 30 30 30 29 29 28 27 27 26 26 26 26 27 27 27 27 28 28 27 26 26 26 26 25 25 24 25 26 26 26 26 25 24 23 21 23 28 28 28 28 27 26 27 26 25 25 25 26 26 25 26 27 27 28 29 29 29 30 30 29 29 29 29 29 29 28 27 26 25 24 23 22 23 22
32 33 34 33 33 33 33 33 32 32 31 31 30 30 30 29 29 28 28 27 27 28 28 28 28 28 29 30 30 29 27 27 28 28 28 28 27 27 27 28 28 29 28 27 27 26 25 26 29 29 27 26 27 27 25 25 26 26 26 27 27 28 29 29 30 31 30 30 30 31 31 31 31 31 30 30 29 28 27 26 25 24 23 23 23
33 33 33 33 33 33 34 34 34 34 33 32 31 31 31 30 29 29 29 29 29 29 29 30 30 30 30 31 32 29 27 28 30 30 30 29 29 28 28 29 29 30 30 30 30 29 28 28 32 32 30 28 29 29 27 26 26 27 28 28 28 29 30 31 32 33 32 31 31 32 32 32 33 33 32 31 30 29 28 28 27 26 25 25 25
33 33 33 33 33 34 35 35 35 35 34 33 33 32 32 31 30 30 30 30 30 30 31 31 31 31 32 32 32 30 29 31 32 32 31 29 29 29 29 29 29 29 30 30 30 29 30 31 32 33 33 32 31 31 31 28 27 28 29 30 31 31 32 33 33 34 34 34 34 33 33 34 34 34 33 32 31 30 30 29 29 28 27 27 26
33 33 33 33 34 35 36 36 36 36 35 34 34 33 32 32 31 31 32 31 31 32 32 32 32 33 33 33 33 32 32 33 34 33 32 30 30 30 30 30 29 28 28 29 29 28 28 30 31 32 32 31 30 31 32 29 27 28 30 31 33 33 33 34 35 34 35 35 36 36 35 35 35 35 35 34 33 32 31 31 30 30 29 29 28
34 35 34 34 34 34 35 36 36 36 35 35 35 34 33 33 33 33 33 32 32 32 33 33 34 34 34 34 34 34 34 34 34 34 33 31 30 31 31 30 28 28 28 28 27 26 27 28 29 30 30 29 27 28 29 27 26 30 32 32 33 34 34 33 34 33 34 35 37 38 38 37 37 38 38 37 36 35 35 34 32 32 31 31 30
35 35 35 34 34 34 35 36 36 35 35 35 36 35 35 34 34 34 33 33 33 33 33 33 34 35 35 35 35 35 34 35 35 35 34 33 32 33 33 30 28 28 28 28 27 26 26 26 27 28 27 25 26 27 28 27 29 32 33 29 30 33 32 31 32 32 32 35 37 39 39 38 37 38 38 39 39 38 37 37 36 35 34 33 32
35 35 35 34 34 35 35 35 35 35 35 36 37 37 36 36 35 34 33 33 33 33 33 34 35 36 35 35 35 34 35 35 35 35 35 35 35 36 36 33 30 28 28 28 28 28 27 26 27 28 25 25 26 27 29 31 32 32 31 27 28 29 27 26 28 30 31 33 35 39 40 38 37 38 38 40 41 40 39 39 39 38 37 35 34
36 35 34 34 35 36 35 35 35 35 36 37 37 37 37 37 36 34 33 33 33 33 34 34 35 36 35 35 35 34 35 36 36 36 36 37 37 37 38 37 35 33 31 29 29 29 28 28 28 27 25 27 29 29 30 32 32 31 30 27 26 26 23 21 20 24 29 29 29 32 36 35 34 37 39 40 41 41 41 41 40 39 38 37 36
36 35 35 35 36 36 35 35 35 35 36 38 38 38 38 37 36 35 34 33 32 33 34 34 35 35 34 34 34 34 35 35 35 35 35 36 37 37 38 38 38 38 38 36 34 32 30 30 29 28 28 29 32 31 31 32 32 31 29 26 25 25 24 22 20 25 31 30 25 27 33 36 34 35 39 41 41 41 40 39 39 39 39 38 38
36 36 36 37 37 36 36 36 36 37 37 37 38 38 38 38 37 36 36 35 34 34 34 34 35 35 34 34 34 34 36 35 34 34 35 35 36 36 37 37 38 39 40 40 40 38 37 34 31 32 32 31 34 36 34 33 32 29 27 26 25 26 25 23 24 31 37 35 29 27 33 39 37 35 40 44 42 42 41 40 39 38 38 38 39
35 36 36 37 38 38 37 38 38 37 38 39 39 38 39 39 38 37 37 36 35 35 35 35 35 35 35 34 34 35 36 35 34 34 34 34 35 35 35 36 38 39 40 40 40 40 41 39 38 41 40 38 40 43 41 37 34 33 31 28 23 21 19 20 27 38 43 41 35 28 30 39 36 33 41 45 40 39 41 40 40 39 37 38 38
36 37 37 38 38 38 38 38 38 38 40 40 39 39 39 38 37 36 36 36 36 36 37 37 37 37 36 34 34 36 37 35 35 34 34 34 34 33 33 34 37 39 40 39 38 39 39 40 42 45 46 45 46 47 46 40 38 39 35 27 20 15 15 22 34 44 48 44 35 24 25 38 34 27 35 41 35 36 40 39 39 40 39 39 39
36 37 37 37 37 38 38 38 37 38 40 40 39 40 40 38 36 35 35 36 37 37 38 38 38 38 37 35 35 37 37 37 36 36 35 34 33 31 30 31 34 38 39 38 37 37 37 39 41 44 45 45 46 48 47 42 41 38 27 23 23 17 18 27 35 42 46 42 31 22 25 38 36 27 33 38 33 34 38 38 39 40 38 38 39
35 36 36 36 37 37 37 37 37 38 39 39 39 40 39 37 36 35 35 36 36 37 38 38 39 38 38 37 37 37 38 38 37 37 36 34 33 31 30 30 33 36 38 37 36 38 38 39 41 42 43 44 44 47 46 43 44 36 21 24 28 19 18 24 26 31 41 40 28 19 24 37 39 31 34 38 33 33 36 37 40 40 38 38 39
37 37 37 36 36 37 37 37 37 38 39 38 37 38 38 37 36 35 35 36 36 37 37 38 38 38 38 38 37 37 38 39 39 38 36 35 34 33 31 30 31 34 37 37 38 38 36 37 39 40 41 42 42 44 43 42 43 36 27 32 33 21 19 25 25 27 35 39 32 22 24 36 39 32 31 31 30 35 38 38 39 40 39 39 39
37 37 36 35 35 36 37 37 37 37 37 37 36 37 37 36 36 35 35 35 35 36 36 36 37 38 38 38 37 38 39 40 40 40 38 37 36 35 32 29 28 32 37 39 39 37 32 31 32 34 36 38 38 39 39 37 36 33 31 36 35 29 29 32 31 23 21 29 33 25 27 36 36 30 29 22 17 26 34 36 37 39 40 41 40
Wind_Direction
176 171 173 175 177 185 187 188 190 190 189 193 205 201 195 191 172 177 166 154 157 166 170 171 217 283 300 300 285 272 264 253 226 197 210 211 204 200 198 202 185 171 175 178 167 159 156 154 148 142 142 140 139 134 134 135 133 136 138 135 133 136 140 138 135 129 111 78 37 15 4 2 356 354 355 353 352 349 345 344 346 348 345 342 344
189 189 191 193 194 195 197 196 199 204 201 195 208 214 215 217 208 207 182 168 188 205 204 206 223 279 312 314 300 270 254 250 242 213 210 214 209 204 203 212 201 179 179 184 175 169 170 169 164 158 152 147 146 146 148 147 144 146 145 143 145 151 155 150 157 149 120 303 342 347 346 350 346 346 344 343 342 340 339 339 342 341 338 338 339
200 202 203 208 208 206 206 200 199 205 207 202 204 218 227 227 223 226 234 208 212 231 231 230 238 299 322 320 320 289 253 245 243 230 221 222 214 207 206 211 208 196 188 184 181 183 182 183 180 169 165 159 154 156 159 160 160 161 159 157 157 164 170 167 194 268 298 304 324 331 335 336 335 336 333 333 333 333 334 334 335 333 333 335 337
211 211 212 218 218 215 210 197 187 186 190 194 200 221 231 229 228 237 260 246 226 234 233 233 246 305 320 319 330 318 272 246 243 238 231 233 223 211 211 214 213 207 201 197 192 194 193 196 199 183 176 178 178 175 175 180 178 177 176 173 178 194 211 239 288 313 311 317 330 333 336 332 324 322 323 328 329 329 331 330 331 331 334 337 339
218 220 223 228 227 224 216 198 186 180 178 192 209 225 232 232 242 260 276 267 245 228 212 219 242 291 307 320 332 327 289 252 247 244 245 252 236 220 215 215 218 214 212 211 202 203 204 204 212 200 186 191 201 201 201 210 211 221 228 226 238 256 280 296 307 316 319 325 329 327 327 322 316 317 321 326 327 328 330 330 332 333 336 338 340
221 224 228 230 229 225 218 204 199 204 203 208 211 214 226 232 245 271 283 279 253 198 168 190 222 270 292 310 313 317 284 250 249 247 253 261 247 233 222 217 220 221 218 214 209 211 215 213 213 207 200 204 213 218 220 227 235 243 252 264 275 285 296 304 315 313 316 319 316 316 318 317 315 320 324 325 325 327 328 329 332 334 335 338 339
223 226 230 230 228 224 215 205 204 208 205 205 207 208 220 233 239 272 291 293 251 114 117 152 178 224 276 296 293 301 263 243 242 242 252 257 246 238 235 225 221 222 221 219 218 219 221 224 221 212 214 219 222 227 230 235 245 250 251 259 271 281 291 297 303 298 300 305 304 312 317 314 315 320 323 323 325 326 327 329 330 331 335 339 341
225 226 228 228 227 223 214 205 204 200 194 197 204 211 224 244 256 280 305 67 68 36 112 152 162 189 257 285 283 257 234 236 239 242 250 249 243 242 248 246 232 225 224 225 227 228 226 228 230 224 223 229 234 236 237 238 247 256 256 255 258 265 272 278 285 287 291 293 296 306 310 307 310 314 318 320 323 325 327 329 330 332 336 343 346
224 225 225 224 227 225 214 206 206 201 197 201 211 220 227 241 261 269 249 88 76 8 162 171 189 232 282 301 278 238 235 231 230 250 256 249 248 252 257 262 250 232 226 228 230 233 233 232 234 232 232 236 241 245 248 248 252 262 268 267 269 272 274 276 283 290 295 294 295 302 305 303 306 310 316 320 322 324 326 327 331 336 341 348 352
222 224 223 222 226 226 217 210 211 210 207 213 225 228 227 232 244 248 274 76 50 339 208 193 219 257 290 294 230 234 245 238 235 274 273 263 259 260 265 265 257 243 235 235 233 234 234 235 237 236 237 242 246 251 256 260 263 269 274 275 280 281 282 285 288 293 297 296 297 301 304 303 306 310 316 320 321 325 328 328 334 342 350 358 3
221 222 222 221 224 226 222 216 217 219 216 219 226 227 229 233 234 235 245 230 319 336 190 194 224 266 288 188 194 229 239 232 253 289 284 273 268 263 267 264 260 258 252 245 238 234 234 237 242 240 241 246 252 257 258 263 268 272 276 282 290 286 285 288 287 291 295 294 296 301 305 306 308 310 311 314 316 320 325 332 346 1 12 20 23
222 224 223 223 224 224 224 222 224 226 224 225 227 231 241 246 240 237 235 226 251 292 174 192 214 254 86 154 176 213 228 234 249 273 275 270 272 273 275 271 269 272 269 257 242 238 238 241 244 244 246 251 255 260 261 265 271 275 277 283 291 288 288 290 284 287 290 289 294 302 307 307 309 310 308 310 313 318 337 1 22 31 32 32 29
225 226 225 225 225 224 224 225 228 230 232 235 236 243 250 248 242 238 234 222 224 160 167 187 205 168 117 147 177 207 221 246 256 260 259 260 272 275 283 285 283 285 280 273 257 247 244 243 246 247 250 257 261 263 263 268 274 276 277 281 287 287 290 292 285 287 288 288 297 302 303 303 304 306 305 313 327 359 36 42 43 41 36 32 30
229 229 229 229 227 225 224 226 231 233 236 239 240 245 243 238 234 235 236 217 202 147 166 179 197 182 144 127 56 278 243 254 254 255 255 260 271 274 286 296 297 295 284 280 274 262 255 249 249 251 255 260 264 265 262 266 271 274 276 278 282 280 283 289 288 290 294 294 295 292 289 293 300 307 317 358 47 52 56 52 47 42 36 35 35
232 232 233 232 231 230 228 229 233 235 238 239 238 239 235 235 232 234 236 217 190 147 173 186 187 161 127 97 22 345 289 272 258 252 254 257 265 270 279 290 295 294 284 280 277 268 262 257 255 256 258 261 263 264 264 264 266 270 275 278 281 275 272 280 286 288 290 286 283 282 281 288 307 338 40 81 83 68 60 55 47 40 38 41 41
234 235 235 236 236 235 234 235 235 237 241 240 237 234 232 236 234 231 232 220 200 164 178 196 192 169 128 74 40 29 302 284 271 256 256 258 263 268 271 279 287 288 286 284 280 272 266 263 266 265 261 261 262 265 268 269 267 263 266 273 279 275 265 265 272 274 274 272 272 278 283 299 326 30 91 99 83 68 59 50 42 40 43 42 38
236 237 237 238 240 239 240 240 239 239 239 240 238 236 236 238 233 227 230 224 214 192 184 188 195 192 176 139 107 7 237 276 296 263 258 258 260 264 267 272 279 284 287 287 282 277 274 272 272 272 271 268 266 270 274 275 272 265 266 268 270 276 270 259 261 266 266 264 262 269 281 296 287 157 105 88 68 59 50 40 38 40 35 26 21
238 238 238 240 242 243 243 243 242 239 238 242 240 238 238 238 231 225 227 223 217 215 202 195 196 200 201 194 193 230 213 180 75 289 274 261 256 260 264 267 271 276 279 281 284 280 279 282 279 277 279 277 273 275 280 280 277 273 275 275 270 279 280 261 258 264 268 263 251 251 251 249 237 192 68 54 53 43 36 32 28 22 13 5 2
239 239 239 241 242 243 243 243 243 240 238 241 240 239 239 237 236 230 228 223 217 219 211 209 212 207 209 211 216 252 227 199 190 207 313 271 255 256 259 263 265 267 270 272 276 280 281 284 287 287 285 283 278 276 280 281 276 270 272 274 273 278 280 267 262 264 267 260 239 235 233 232 244 264 318 16 34 31 22 12 5 360 357 354 352
240 240 239 239 241 242 242 242 242 239 237 238 240 242 242 239 239 236 234 229 223 226 219 215 220 215 212 216 235 276 238 217 221 210 161 287 266 260 257 258 259 259 262 264 266 271 277 283 289 293 292 287 281 275 279 281 273 265 266 270 273 276 277 268 262 257 254 246 233 232 236 244 254 265 285 338 357 358 353 348 349 348 347 346 346
238 241 239 239 240 241 242 242 241 240 237 238 240 242 244 242 241 239 239 236 229 231 231 228 230 226 225 229 239 255 231 223 227 212 186 198 248 267 257 257 260 256 254 257 261 264 268 276 283 287 292 290 285 279 280 283 276 266 266 272 273 273 270 260 253 246 242 241 240 237 235 238 240 237 238 250 289 317 328 333 338 339 338 339 340
235 239 239 239 239 240 241 242 242 242 240 240 241 241 243 242 243 242 242 243 237 234 234 237 242 241 242 241 237 234 224 217 211 205 201 213 226 260 253 247 254 258 256 256 258 261 263 266 269 272 279 284 285 283 280 281 277 274 276 277 272 266 258 251 246 244 243 244 244 244 237 231 229 227 234 249 271 293 311 322 327 330 329 330 330
234 237 238 238 239 239 240 241 243 243 242 242 242 242 242 242 242 243 243 244 242 238 237 239 245 250 252 251 246 240 238 241 233 218 212 213 219 253 251 242 243 254 260 260 259 261 261 260 260 261 268 274 277 279 279 278 273 273 276 271 265 260 253 251 249 247 248 247 246 247 242 235 232 233 240 252 268 284 300 310 316 319 321 322 320
232 236 237 237 237 237 238 239 241 243 243 243 242 242 244 244 243 243 243 243 242 241 241 240 243 248 252 257 256 251 249 257 265 251 237 234 234 240 246 243 244 254 261 263 263 262 260 259 259 258 261 264 268 270 272 274 271 268 269 264 259 256 254 254 254 251 251 252 250 248 247 245 242 243 250 259 271 282 293 301 307 311 314 315 313
229 232 235 236 237 237 237 238 239 243 244 244 243 243 244 245 245 245 244 244 243 242 242 241 242 246 251 257 261 259 256 260 267 266 259 250 242 243 247 242 249 265 272 272 269 268 265 263 261 259 260 260 261 263 264 266 267 265 264 262 259 258 256 255 255 255 254 254 254 251 251 251 250 254 259 266 274 281 288 294 299 305 308 308 307
229 231 234 236 238 238 238 239 240 244 246 246 245 244 244 245 245 246 247 246 246 246 245 243 243 245 249 255 259 262 261 263 267 265 261 256 244 239 242 242 254 266 276 279 273 271 270 270 269 263 261 260 259 259 260 260 261 261 261 262 261 259 258 257 256 256 255 255 255 254 253 254 255 259 263 268 274 279 285 290 296 301 303 303 302
231 233 235 236 239 240 239 239 240 243 247 247 246 245 244 244 245 247 247 248 249 249 248 246 245 245 248 252 257 262 262 265 269 264 259 260 255 247 240 230 255 266 266 271 270 268 269 274 277 270 263 261 261 259 259 260 259 259 258 259 260 258 256 256 255 255 256 257 257 257 257 257 258 260 263 266 271 276 281 286 291 295 298 298 298
233 234 236 236 239 241 241 240 240 243 246 248 248 246 245 244 244 245 245 246 248 249 250 249 249 248 249 252 256 260 261 263 267 263 257 262 265 259 248 235 236 262 280 273 267 269 273 274 276 279 273 266 263 262 260 260 260 259 257 257 259 260 257 256 255 255 256 257 259 261 262 263 264 265 266 268 270 273 277 281 285 289 292 293 292
234 235 236 237 239 240 242 241 241 243 246 248 248 248 247 245 245 245 245 245 247 250 251 251 252 253 254 256 257 259 261 261 262 261 259 263 265 263 259 250 242 238 265 296 266 265 278 278 275 285 288 278 272 266 262 262 263 261 259 258 258 260 260 259 258 257 257 257 259 262 265 266 268 269 270 271 271 273 274 276 279 282 285 286 285
234 235 237 238 239 239 240 240 240 243 245 247 248 249 248 246 246 247 247 248 250 251 252 254 256 257 258 259 260 262 262 262 262 260 260 263 264 262 262 260 254 245 241 263 280 273 276 282 280 287 297 295 287 276 269 267 267 264 262 262 261 261 262 262 260 260 260 260 261 263 265 266 268 270 271 272 272 272 273 274 276 277 279 279 278
234 235 237 238 238 238 239 239 239 241 244 247 248 249 249 248 247 248 249 249 251 253 254 256 257 259 260 261 262 263 264 264 263 262 260 261 263 263 262 262 259 255 250 244 268 277 273 279 286 291 299 301 295 286 278 275 272 269 267 266 266 266 265 264 262 261 261 261 262 263 265 266 267 267 269 270 271 271 271 272 274 275 275 274 272
233 235 236 238 238 238 238 238 238 239 242 245 247 248 249 249 248 248 250 251 252 254 256 257 258 259 260 262 263 265 266 267 265 264 261 260 260 261 263 264 260 258 254 242 241 269 273 277 284 288 292 294 292 287 282 279 277 274 272 272 272 271 268 267 266 264 262 261 261 262 264 265 266 266 266 267 269 270 270 270 272 273 272 270 267
232 233 235 237 238 239 238 238 238 239 242 244 247 248 247 248 249 249 251 252 253 256 257 258 258 258 259 261 264 266 266 267 267 267 264 261 260 259 261 263 260 256 252 243 241 263 275 278 279 283 287 288 286 285 283 281 279 277 276 276 275 273 272 271 271 270 267 265 263 262 262 263 265 265 265 265 265 266 266 266 268 269 269 266 263
232 233 235 236 237 238 238 238 239 240 242 244 246 247 246 247 248 249 250 251 253 254 256 257 258 258 259 260 262 265 266 266 267 267 266 263 261 260 259 260 260 257 253 250 246 253 269 275 277 280 283 282 280 282 282 282 283 281 279 277 277 276 275 274 274 274 273 271 268 265 263 263 264 264 264 263 263 263 263 263 264 265 266 262 259
231 233 234 235 236 237 238 239 240 241 243 244 245 245 245 246 247 248 250 250 251 252 253 256 258 258 258 259 261 262 263 264 266 266 265 264 261 260 259 258 258 258 257 255 252 250 260 272 277 278 280 279 278 280 281 282 283 280 278 278 278 276 275 274 273 274 275 274 271 269 266 264 263 264 264 264 263 262 262 262 262 262 263 261 258
230 233 234 234 235 235 237 239 241 242 243 243 243 244 245 246 248 249 250 251 251 252 254 256 257 258 257 258 260 261 260 262 264 264 263 262 260 259 258 258 258 259 259 258 257 256 260 270 275 276 278 279 279 280 280 279 278 277 277 278 277 276 276 274 273 273 274 273 271 269 267 266 265 264 265 265 264 263 262 262 263 262 262 261 259
229 231 232 233 233 234 236 238 241 243 244 244 242 243 245 246 248 249 250 251 253 254 255 257 257 257 257 258 260 260 260 261 263 263 262 261 260 259 259 259 259 259 260 259 259 260 259 264 271 275 278 279 279 280 279 277 277 277 276 275 275 275 275 274 273 272 272 271 268 266 265 265 265 265 265 266 265 264 263 263 263 262 262 262 259
227 229 230 231 232 233 236 238 240 242 245 245 243 243 244 246 248 250 251 251 252 254 256 257 258 258 257 259 260 259 259 260 262 262 262 261 261 261 260 261 261 260 260 259 259 259 259 261 267 272 274 275 276 278 279 278 277 276 276 276 274 272 272 272 272 272 273 271 268 266 264 264 265 265 266 267 266 265 263 262 262 261 260 260 258
225 227 228 230 232 234 236 238 239 242 243 244 243 243 243 245 246 248 249 250 251 253 254 256 258 258 258 259 259 259 258 260 262 262 262 262 262 263 263 263 263 262 261 261 259 257 257 259 263 267 271 272 273 274 276 277 275 273 273 272 272 271 271 270 271 273 274 273 272 269 266 265 265 266 266 266 265 264 263 261 260 259 257 257 255
224 226 227 229 231 234 236 238 240 241 241 242 242 241 242 243 245 246 247 248 249 251 253 255 257 258 259 259 259 259 259 260 262 263 264 263 263 264 265 264 263 262 262 263 261 258 257 258 260 264 268 270 271 272 273 271 267 267 267 266 267 271 272 271 272 275 276 275 275 273 270 267 266 266 266 265 264 263 262 260 258 257 256 254 252
225 226 228 229 231 233 235 237 239 240 239 240 240 240 241 241 242 244 245 246 248 250 252 254 256 257 258 259 259 259 260 261 264 265 266 267 266 266 267 265 262 261 261 261 260 259 258 257 259 263 265 266 266 267 267 263 261 265 268 265 264 269 273 274 274 274 275 275 274 273 272 270 269 269 267 266 266 265 263 260 257 255 254 252 249
224 226 227 229 230 233 235 236 238 238 239 240 241 241 242 242 242 242 242 244 246 248 250 253 256 257 257 258 259 259 260 262 264 265 266 267 267 268 269 267 262 260 259 258 258 258 257 256 258 262 263 264 264 264 264 266 267 268 267 264 263 269 274 276 276 278 277 274 271 271 272 273 273 273 271 269 269 268 265 262 260 256 254 252 249
224 225 226 228 230 232 234 236 237 237 238 241 242 242 243 243 242 241 241 244 245 247 249 251 254 257 257 258 259 259 260 261 263 264 265 266 267 268 270 269 266 262 258 256 256 258 257 256 258 260 260 264 268 267 267 270 271 269 266 263 262 266 268 269 276 282 281 278 271 268 273 276 274 272 272 271 269 268 266 265 263 260 255 252 249
223 224 225 227 229 232 233 235 237 237 239 241 242 243 244 244 243 242 242 244 245 247 249 251 254 256 257 259 260 260 261 261 262 263 264 266 267 268 269 270 269 266 262 258 257 257 257 258 260 261 260 264 270 270 268 270 271 270 268 264 260 260 261 262 267 275 280 280 271 265 271 275 271 266 267 268 266 266 266 265 263 260 256 252 248
222 223 224 227 229 231 232 234 236 238 240 242 243 243 244 244 244 243 243 243 244 246 249 251 253 255 256 258 259 260 261 262 262 263 263 265 267 268 269 270 269 268 266 263 260 259 258 259 262 263 263 264 267 268 269 270 270 269 266 261 258 257 257 261 267 274 279 277 265 258 264 269 265 259 261 265 264 263 264 263 261 259 257 253 247
222 223 225 226 228 230 231 233 235 237 240 241 243 243 244 245 245 244 244 244 244 246 248 251 252 254 255 256 257 260 262 261 261 261 262 263 264 265 267 268 269 270 269 267 264 262 260 258 258 262 265 265 265 268 271 269 267 266 264 261 261 261 263 270 274 276 277 271 258 251 260 267 263 254 259 265 266 265 266 265 264 262 260 257 251
222 224 225 227 228 230 231 233 234 237 239 241 242 243 244 245 245 244 244 244 244 246 248 250 251 253 254 254 256 259 261 261 261 261 261 262 262 262 263 266 269 272 271 269 269 268 266 263 261 264 268 268 267 269 270 268 266 267 266 268 273 276 275 274 272 271 273 270 258 245 257 271 269 259 263 270 270 269 269 268 266 265 263 261 257
223 225 226 227 229 231 232 232 234 237 239 241 241 243 244 245 244 243 243 243 243 245 248 250 251 253 254 253 255 257 259 261 262 262 262 262 261 260 260 263 267 270 271 271 272 271 271 271 269 269 271 272 273 274 272 269 267 268 269 274 274 266 257 261 264 267 272 274 265 243 248 267 270 264 267 272 269 267 268 267 266 265 262 261 259
222 225 227 228 230 232 233 233 233 236 240 241 242 243 244 244 242 242 241 241 242 244 247 250 252 253 254 254 254 256 259 261 262 263 263 262 260 257 257 259 263 267 270 272 273 272 272 273 274 275 275 276 278 279 278 275 271 268 266 269 267 253 242 251 256 264 270 274 270 247 243 259 265 263 266 271 269 267 267 265 264 263 260 258 256
222 224 227 229 230 232 233 234 234 236 240 242 243 244 245 244 242 241 241 241 242 244 247 251 252 254 255 255 255 255 258 261 263 264 263 261 259 256 254 255 259 264 269 272 273 272 272 273 276 277 278 278 279 281 282 282 277 271 262 262 260 247 242 251 254 262 271 273 269 253 242 256 264 262 261 267 268 266 264 263 262 261 259 257 253
223 225 226 228 230 232 234 235 236 237 240 243 244 245 245 244 242 241 240 240 241 244 247 250 253 255 256 256 257 257 259 262 264 264 264 261 259 257 255 253 254 260 268 272 273 273 272 272 274 277 278 279 281 283 285 286 283 278 270 267 262 247 242 251 255 258 268 272 268 253 243 255 263 259 254 258 264 265 263 260 260 259 258 256 252
Height
859 860 861 861 862 863 863 864 864 865 865 866 866 867 867 867 868 868 868 869 869 869 870 870 870 870 870 870 870 870 870 871 872 873 873 873 874 874 875 876 876 876 877 877 877 878 878 878 878 879 879 879 879 879 880 880 880 881 881 881 882 882 882 882 882 883 883 883 882 882 882 882 882 881 881 881 880 880 879 879 878 878 877 876 876
860 860 861 862 863 863 864 864 865 865 865 866 866 867 867 868 868 868 868 869 869 869 870 870 870 871 870 870 870 870 870 871 872 873 873 874 874 874 875 876 876 876 877 877 878 878 878 878 879 879 879 880 880 880 880 881 881 881 882 882 882 883 883 883 883 883 883 883 883 883 882 882 882 881 881 880 880 879 879 878 878 877 877 876 876
860 861 861 862 863 863 864 864 865 865 865 866 866 867 867 868 868 868 869 869 869 869 870 870 870 871 870 870 870 870 870 870 871 872 873 874 874 875 875 876 876 876 877 878 878 878 878 879 879 879 880 880 880 881 881 881 881 882 882 882 882 883 883 883 883 883 883 883 883 883 883 882 882 881 881 880 880 879 879 878 877 877 876 876 875
860 861 862 863 863 864 864 864 865 865 866 866 866 867 867 868 868 868 869 869 869 869 870 870 870 871 870 870 870 870 870 870 871 872 873 874 874 875 875 876 876 876 877 878 878 878 879 879 880 880 880 880 881 881 881 881 882 882 882 882 883 883 883 883 883 883 883 883 883 883 882 882 882 881 881 880 880 879 879 878 877 877 876 875 875
861 861 862 863 863 864 864 864 865 865 866 866 867 867 867 868 868 868 869 869 869 869 870 870 871 871 871 870 870 870 870 870 871 872 873 874 874 875 875 876 876 877 877 878 878 878 879 879 880 880 880 880 881 881 881 882 882 882 882 883 883 883 883 883 883 883 883 883 883 882 882 882 881 881 881 880 880 879 878 878 877 876 876 875 875
860 861 862 863 863 864 864 865 865 865 866 867 867 867 868 868 868 869 869 869 869 869 870 870 871 871 871 871 870 870 870 871 871 872 873 874 874 874 875 876 876 877 877 878 878 878 879 879 879 880 880 880 881 881 881 881 882 882 882 883 883 883 883 883 883 883 883 883 882 882 882 881 881 881 880 880 880 879 879 878 877 876 876 875 875
860 861 862 863 864 864 864 865 865 866 866 867 867 868 868 868 869 869 869 869 869 869 870 870 871 871 871 871 870 871 871 871 872 873 873 874 874 874 875 876 876 877 877 878 878 878 879 879 879 880 880 880 880 881 881 881 881 882 882 882 883 883 883 883 883 883 883 882 882 882 882 881 881 881 880 880 879 879 878 878 877 877 876 875 875
860 861 862 863 863 864 865 865 866 866 867 867 868 868 868 869 869 869 870 869 869 870 870 871 871 871 871 871 871 871 871 871 872 873 874 874 874 875 875 876 876 877 877 878 878 878 879 879 879 879 879 880 880 880 880 881 881 881 881 882 882 882 882 882 882 882 882 882 882 882 881 881 880 880 880 879 879 879 878 878 877 877 876 875 875
859 860 861 862 863 864 865 865 866 866 867 867 868 868 869 869 869 870 870 870 870 870 871 871 871 871 871 871 871 871 871 872 873 873 874 874 874 875 875 876 876 877 877 877 878 878 878 879 879 879 879 879 880 880 880 880 881 881 881 881 881 882 882 882 882 882 882 881 881 881 881 881 880 880 880 879 879 879 878 877 877 877 876 875 875
859 860 861 862 863 864 865 865 866 866 867 867 868 869 869 869 869 870 870 870 870 871 871 871 871 871 871 871 871 871 872 873 873 874 874 874 875 875 875 876 876 877 877 877 877 878 878 878 879 879 879 879 879 880 880 880 880 880 881 881 881 881 881 881 881 881 881 881 881 881 880 880 880 880 880 879 879 878 878 877 877 877 876 876 875
859 859 860 862 862 864 864 865 866 866 867 868 868 869 869 869 870 870 870 871 871 871 871 871 871 871 871 871 871 872 873 873 874 874 874 875 875 875 876 876 876 876 877 877 877 877 878 878 878 879 879 879 879 879 879 880 880 880 880 880 880 880 881 881 881 881 881 881 881 880 880 880 880 880 879 879 879 878 878 877 877 877 876 876 875
858 859 860 861 862 863 864 865 866 866 867 868 868 869 869 869 870 870 871 871 871 871 871 872 871 871 871 871 872 873 873 874 874 875 875 875 875 876 876 876 877 876 876 876 877 877 877 878 878 878 879 879 879 879 879 879 879 880 880 880 880 880 880 880 880 880 880 880 880 880 880 880 879 879 879 878 878 878 878 877 877 877 876 876 876
858 858 859 860 861 862 863 864 865 866 867 867 868 869 869 869 869 870 871 871 872 871 872 872 872 872 872 872 873 873 874 874 875 875 875 875 875 876 876 876 876 876 876 876 876 876 877 877 878 878 878 878 878 879 879 879 879 879 879 879 879 880 880 880 880 880 880 880 880 879 879 879 879 878 878 878 878 878 878 877 877 877 877 876 876
857 858 859 860 861 862 863 864 865 865 866 867 868 868 869 869 869 870 871 871 872 872 872 872 872 873 873 873 874 874 874 874 875 875 875 875 875 876 876 876 876 876 876 876 876 876 877 877 877 877 878 878 878 878 878 878 878 878 879 879 879 879 879 879 879 879 879 879 879 879 879 879 878 878 878 878 878 878 878 878 878 877 877 877 876
856 857 858 859 860 861 862 863 864 865 866 866 867 868 868 869 869 869 870 871 872 872 872 872 872 873 874 875 876 876 876 875 874 875 875 875 875 876 876 876 876 876 876 876 876 876 876 877 877 877 877 877 877 877 877 878 878 878 878 878 878 878 879 878 878 879 879 879 878 878 878 878 878 878 878 878 878 878 878 878 878 878 877 877 876
856 856 857 858 859 860 861 862 864 864 865 866 866 867 868 868 868 869 869 870 871 872 872 873 872 873 875 877 878 879 879 876 874 874 875 875 875 875 876 876 876 876 876 876 876 876 876 876 876 876 877 877 877 877 877 877 877 877 878 878 878 878 878 878 878 878 878 878 878 878 878 878 878 878 878 878 878 878 879 878 878 878 878 877 877
855 856 856 857 859 860 861 862 863 864 865 865 866 867 867 868 868 868 869 870 870 871 872 873 873 873 874 876 878 880 880 877 875 875 874 874 875 875 875 875 875 875 875 876 876 876 876 876 876 876 876 876 877 877 877 877 877 877 877 877 877 877 877 877 877 878 877 877 878 878 878 878 878 878 878 878 879 879 879 879 878 878 878 878 877
853 855 856 857 858 859 860 861 862 863 864 865 865 866 867 867 868 868 869 869 870 871 871 872 873 873 873 874 875 877 876 876 877 877 874 873 874 874 874 875 875 875 875 875 875 875 875 875 876 876 876 876 876 877 877 877 877 877 877 877 877 876 877 877 877 877 877 877 877 877 878 878 878 878 878 879 879 879 879 879 879 879 879 878 878
852 854 855 856 857 858 859 860 861 862 863 864 865 865 866 867 867 868 868 869 870 870 870 871 872 873 873 873 873 874 874 874 876 877 877 875 873 874 874 874 875 875 875 875 875 875 875 875 875 876 876 876 876 877 877 876 876 876 876 876 876 876 876 876 877 877 877 877 877 877 878 878 878 878 879 879 879 879 879 880 879 879 879 878 878
852 853 854 855 856 856 857 858 859 861 862 863 864 865 866 867 867 867 868 868 869 869 870 871 871 872 872 873 873 873 873 873 873 874 876 877 875 874 874 874 874 874 874 875 875 875 875 875 875 875 876 876 876 876 876 876 876 876 876 876 876 876 876 876 876 876 877 877 877 877 878 878 878 878 879 879 879 879 880 880 880 879 879 878 878
850 851 853 854 855 855 856 857 858 859 860 862 863 864 865 866 866 867 867 868 868 869 869 870 870 871 872 872 873 873 873 873 873 873 874 876 876 874 873 874 873 873 873 874 874 875 875 875 875 875 875 875 875 876 876 876 876 876 876 876 876 876 876 876 876 876 876 877 877 877 877 878 878 878 879 879 879 879 879 879 879 879 878 878 877
848 850 851 852 853 854 855 856 857 858 859 860 862 863 864 865 866 866 867 867 867 868 868 869 869 870 871 871 872 872 873 873 873 873 873 874 875 874 873 874 873 872 873 873 873 874 874 875 875 875 875 875 875 875 875 875 875 876 876 876 876 876 875 876 876 876 876 876 877 877 877 877 878 878 878 878 879 879 879 878 878 878 878 878 877
847 848 849 850 852 853 854 855 856 856 858 859 860 862 863 864 865 865 866 866 866 867 867 868 868 869 870 870 871 871 872 872 872 873 873 873 874 873 873 873 873 872 872 872 873 873 874 874 874 874 874 874 874 874 874 875 875 875 875 875 875 875 875 875 875 876 876 876 876 876 877 877 877 877 878 878 878 878 878 878 878 878 877 877 877
845 846 847 848 850 851 852 853 854 855 856 857 859 860 861 863 863 864 865 865 865 866 866 867 867 868 868 869 870 870 871 871 872 872 872 872 872 872 872 873 873 872 871 872 872 872 872 872 872 873 873 873 873 874 874 874 874 874 875 875 875 875 875 875 875 875 875 875 876 876 876 877 877 877 877 877 877 877 877 877 877 877 877 876 876
842 843 845 847 848 850 851 852 853 854 855 856 857 859 860 861 862 863 864 864 864 865 865 866 866 867 867 868 869 869 870 870 871 872 872 872 872 872 872 873 873 872 871 871 870 870 870 870 871 871 872 872 873 873 873 873 873 874 874 874 874 874 874 874 874 874 874 875 875 875 875 876 876 876 876 876 876 876 876 876 876 876 875 875 875
840 842 844 846 847 848 850 851 852 853 854 855 856 857 858 859 861 862 862 863 863 864 864 864 865 866 866 867 867 868 869 869 870 871 871 871 871 871 872 872 873 872 871 870 870 869 868 868 869 870 870 871 871 872 872 872 872 873 873 873 873 873 873 873 873 873 873 873 874 874 874 875 875 875 875 875 875 875 875 875 875 875 874 874 874
839 841 843 844 846 847 849 850 851 852 853 854 854 855 857 858 859 860 861 862 862 862 863 863 864 864 865 865 866 866 867 868 869 870 870 871 871 871 872 872 873 872 870 869 869 868 867 867 868 868 868 869 869 870 870 871 871 871 872 872 871 872 872 872 872 872 872 872 873 873 873 873 874 874 874 874 874 874 874 874 874 874 873 873 873
837 839 841 842 844 845 847 848 849 851 851 852 853 854 855 856 857 858 859 860 861 861 862 862 862 863 864 864 865 865 866 867 868 868 869 870 870 871 871 871 873 873 871 869 867 866 865 866 866 866 866 867 867 868 869 869 869 870 870 870 870 870 870 871 871 871 871 871 872 872 872 872 872 872 873 872 872 872 872 872 872 872 872 872 871
835 837 839 840 842 843 845 846 848 849 850 851 851 852 853 854 855 856 857 858 859 860 860 861 861 862 862 863 863 864 865 866 867 867 868 869 869 870 870 870 871 872 872 871 867 864 864 864 864 864 864 865 865 866 866 866 867 867 868 868 868 868 869 870 870 870 870 870 871 871 871 871 871 871 871 871 871 870 870 870 870 870 870 870 870
833 835 837 838 840 841 843 844 845 847 848 849 850 850 851 852 853 854 855 857 858 858 859 859 860 860 860 861 861 862 863 865 865 866 867 868 868 868 869 869 869 869 870 871 867 862 862 862 862 862 863 863 864 864 864 864 864 865 865 866 866 866 867 868 868 868 868 868 869 869 869 869 869 869 868 868 868 868 868 868 868 868 868 868 868
830 832 834 835 837 838 840 841 843 844 846 847 848 849 849 850 851 852 853 855 856 856 857 858 858 859 858 859 859 860 861 862 863 864 865 866 867 867 867 867 867 867 868 870 868 861 860 861 860 861 862 861 862 862 861 862 862 863 863 863 863 864 864 865 865 866 866 866 866 866 866 866 866 866 866 866 865 865 865 865 865 866 866 866 865
828 829 831 832 834 835 837 839 840 842 843 844 846 847 847 848 849 850 851 852 853 854 855 856 856 857 856 856 857 858 859 860 861 862 863 864 865 865 865 865 865 866 866 868 867 861 858 859 859 859 860 860 860 860 859 860 860 861 861 861 861 861 861 861 862 862 862 863 863 863 863 863 863 863 863 862 862 862 862 862 862 863 863 863 863
825 827 828 830 831 832 834 836 837 839 840 842 843 844 845 846 847 848 849 850 851 852 853 854 854 854 854 854 855 856 857 858 858 860 861 862 862 862 863 863 862 864 864 865 864 860 856 857 857 857 858 858 858 857 858 857 858 858 858 858 858 858 858 858 858 858 859 859 860 860 860 860 859 859 859 858 858 858 858 858 859 859 859 859 860
822 824 826 827 829 830 831 833 835 836 838 839 841 842 843 844 844 846 847 848 849 850 851 851 851 852 852 852 852 853 855 855 856 857 858 859 859 859 860 860 860 861 862 862 862 859 855 853 854 855 855 856 855 855 855 855 855 856 856 856 856 856 855 855 855 855 855 855 856 856 856 856 855 855 854 854 854 854 854 855 855 855 856 856 856
820 821 823 824 826 828 829 831 832 834 835 836 838 839 840 841 842 843 844 845 846 847 848 848 849 849 849 849 850 851 852 853 853 854 855 856 856 857 857 857 857 858 859 859 859 857 854 851 851 852 852 853 853 852 853 853 853 853 853 853 853 853 852 852 851 851 851 851 851 851 851 851 851 850 850 850 850 851 851 851 852 853 853 853 853
817 819 820 822 824 825 827 828 829 831 832 833 835 836 837 839 840 841 842 843 844 844 845 846 846 847 847 847 847 848 850 850 850 851 852 853 853 854 854 854 855 855 856 856 855 855 853 850 848 849 850 850 850 850 851 851 851 851 850 850 850 849 848 848 848 847 847 847 847 847 847 846 846 846 846 847 847 848 849 849 850 850 851 851 851
814 816 818 819 821 823 824 825 826 827 829 830 832 833 834 836 837 838 839 840 841 842 842 843 843 844 844 844 845 847 848 847 847 847 848 849 850 851 851 852 852 853 853 854 853 853 852 849 847 846 847 848 847 848 848 849 848 848 847 847 846 846 845 844 843 843 843 843 842 842 842 842 842 842 843 844 845 846 847 847 848 848 848 848 848
810 812 814 816 818 819 820 822 823 824 826 827 829 830 832 833 834 835 836 837 838 839 839 840 840 841 841 841 842 844 845 844 843 844 845 847 847 848 848 849 850 850 850 850 851 851 850 848 846 845 845 845 845 845 846 846 846 845 844 843 842 841 840 839 839 839 838 838 838 838 838 838 838 839 840 841 842 842 843 843 844 845 845 845 845
807 809 811 813 814 816 817 819 820 821 823 824 826 827 829 830 831 832 833 834 835 836 837 837 838 838 838 839 840 841 841 841 841 841 843 844 844 845 845 846 847 847 847 847 848 848 847 846 845 844 842 842 843 843 843 843 843 842 841 838 836 836 836 835 835 835 835 834 833 833 834 834 834 834 835 836 837 837 838 839 839 840 841 841 841
803 805 807 809 811 813 814 815 817 818 820 821 822 824 825 827 828 829 830 831 832 833 833 834 834 835 835 836 837 838 838 838 838 839 840 841 842 842 842 843 844 844 844 844 844 845 844 843 842 841 840 839 839 839 839 840 839 837 835 835 832 831 832 831 832 833 833 832 830 829 828 829 830 830 830 831 832 832 833 834 834 835 835 836 837
799 802 804 806 808 809 811 812 813 815 817 817 818 820 822 823 824 825 827 828 829 830 830 830 831 831 832 833 834 834 835 835 836 837 838 839 839 839 839 840 841 841 841 842 842 841 841 840 838 837 836 835 835 835 834 834 833 831 831 831 829 828 830 829 829 831 831 830 827 825 824 825 826 826 826 826 827 828 828 828 829 829 830 831 832
796 798 801 803 804 806 807 808 810 811 813 813 814 816 818 819 821 822 823 824 825 826 827 827 827 827 828 830 830 831 832 832 833 834 835 836 836 836 836 837 838 838 838 839 838 838 837 836 834 833 832 830 830 831 830 828 828 828 828 829 828 828 829 828 826 827 828 826 824 821 821 823 824 823 822 822 821 822 822 822 822 823 824 825 827
793 795 797 799 800 802 803 805 806 807 808 809 811 812 814 816 817 819 820 821 822 823 823 823 823 824 825 826 827 828 829 829 829 830 831 832 832 832 833 834 835 835 835 835 834 834 833 832 830 830 829 826 826 827 827 825 825 825 825 826 826 827 828 827 825 824 823 822 821 818 817 819 819 817 815 814 813 813 813 813 815 816 818 819 820
789 791 793 794 795 797 799 801 802 803 804 805 807 809 810 812 814 816 817 818 819 819 819 820 820 821 822 823 824 824 824 825 826 827 828 828 828 829 829 830 830 830 830 831 831 830 829 828 827 826 826 824 822 823 824 823 822 822 822 823 824 824 825 825 824 821 818 818 818 815 812 811 811 809 805 803 802 802 802 803 805 807 808 810 812
785 787 788 790 791 793 795 796 798 799 800 802 803 805 807 808 811 812 814 815 815 815 816 816 817 817 818 819 820 820 820 821 822 823 824 824 825 825 825 826 826 825 825 825 826 826 826 826 824 821 821 822 818 816 819 819 818 818 818 818 820 821 822 824 823 818 813 812 812 811 805 801 801 801 795 791 792 793 794 795 796 798 799 801 803
781 783 784 785 787 788 790 792 793 794 796 797 799 801 803 805 807 809 810 811 812 812 812 812 813 814 815 816 816 816 816 817 818 819 820 821 821 822 822 822 821 819 819 819 820 821 822 822 820 816 816 817 813 810 813 816 815 814 813 814 817 821 824 825 822 811 803 801 804 806 800 793 795 796 790 788 791 792 792 793 794 795 795 795 796
777 778 779 781 782 784 785 787 789 790 790 792 795 797 799 801 803 805 807 808 808 808 808 808 809 810 811 812 813 812 812 813 814 815 816 817 818 819 819 818 817 814 813 813 815 816 816 817 815 811 809 810 808 805 807 811 811 809 810 814 818 823 825 822 812 800 793 794 800 807 802 792 792 795 790 789 793 792 790 791 792 792 793 792 793
773 774 775 777 778 780 781 783 785 785 786 788 791 792 794 797 800 802 803 803 804 804 804 804 805 805 807 808 808 808 808 809 810 811 813 814 815 816 816 816 814 810 808 809 810 810 810 809 807 805 804 804 802 800 801 807 808 807 810 814 816 819 819 812 804 796 791 791 797 804 802 790 788 791 788 786 787 785 783 784 784 785 786 787 788
769 770 771 773 774 776 777 779 780 781 782 784 786 788 791 794 796 797 798 799 800 799 799 800 800 801 802 803 804 804 804 804 806 807 809 810 811 812 813 813 811 807 805 805 804 803 803 803 801 800 799 798 797 795 797 803 804 805 811 812 810 812 811 805 800 795 790 788 792 799 797 785 782 786 784 780 781 780 777 777 776 776 778 778 778
764 766 767 769 770 772 773 775 776 777 778 780 783 785 787 790 792 793 794 795 795 795 795 795 796 796 797 798 800 801 800 800 801 803 805 806 806 807 809 809 808 805 802 801 799 797 798 799 797 796 796 795 794 793 794 797 799 803 807 805 803 806 806 800 797 794 788 784 786 793 790 779 776 781 780 777 775 772 770 770 769 769 770 770 770
760 762 764 765 766 768 769 771 773 774 775 777 779 781 783 785 787 789 790 791 790 790 791 792 791 792 792 793 795 796 796 796 797 798 800 801 801 802 804 806 806 802 798 797 794 793 795 796 795 794 793 791 791 791 791 792 795 797 799 796 796 799 798 793 792 793 787 778 779 785 783 773 771 775 775 774 770 765 763 764 762 762 762 762 763